EDRS-C

Last updated on Tue Sep 22 2026 00:03:15 GMT+0000 (Coordinated Universal Time)

1 44475U 19049A 26264.44193719 -.00000266 00000+0 00000+0 0 9998 2 44475 0.0133 195.2045 0001164 337.6171 129.1138 1.00272018 26171
UTC large
Height (km)
Speed (km/s)
/
Latitude / Longitude
Inclination (degrees)
Orbital Period (minutes)
Azimuth
Elevation
Range (km)
Doppler Factor

Next 0 passes for location: London (51.5072 / 0.1276)

No passes found over London.
EDRS-C